This is the latest recevied weather packets stored in our database for station/object EW7404. If no packets are shown the sender has not sent any weather packets the latest 10 day(s).
| Time | Temp. | Humidity | Pressure | Rain* | Wind** | Luminosity | Snow |
|---|---|---|---|---|---|---|---|
| 1778255415 | 2.22° C | 95% | 948.9 hPa | 0 mm | - | - | - |
| 1778254815 | 2.22° C | 95% | 948.9 hPa | 0 mm | - | - | - |
| 1778253635 | 2.78° C | 88% | 949 hPa | 6.1 mm | - | - | - |
| 1778253055 | 2.78° C | 92% | 949.1 hPa | 6.1 mm | - | - | - |
| 1778248816 | 2.78° C | 100% | 949.9 hPa | 0 mm | - | - | - |
| 1778244615 | 3.33° C | 82% | 950.8 hPa | 0 mm | - | - | - |
| 1778241015 | 3.33° C | 79% | 951.7 hPa | 0 mm | - | - | - |
| 1778236816 | 5° C | 68% | 952.1 hPa | 0 mm | - | - | - |
| 1778236215 | 5° C | 62% | 952.1 hPa | 0 mm | - | - | - |
| 1778226915 | 6.11° C | 64% | 952.8 hPa | 0 mm | - | - | - |
| 1778225115 | 6.67° C | 62% | 953 hPa | 0 mm | - | - | - |
| 1778222716 | 6.67° C | 58% | 952.7 hPa | 0 mm | - | - | - |
| 1778222115 | 7.22° C | 56% | 952.7 hPa | 0 mm | - | - | - |
| 1778220915 | 6.11° C | 56% | 952.7 hPa | 0 mm | - | - | - |
| 1778219115 | 6.11° C | 60% | 952.9 hPa | 0 mm | - | - | - |
| 1778217915 | 6.11° C | 60% | 953.2 hPa | 0 mm | - | - | - |
| 1778217315 | 6.11° C | 59% | 952.9 hPa | 0 mm | - | - | - |
| 1778216156 | 6.11° C | 58% | 952.9 hPa | 0 mm | - | - | - |
| 1778212016 | 5.56° C | 61% | 952.7 hPa | 0 mm | - | - | - |
| 1778211336 | 5.56° C | 60% | 952.6 hPa | 0 mm | - | - | - |
| 1778207115 | 5.56° C | 63% | 952.7 hPa | 0 mm | - | - | - |
| 1778206516 | 5° C | 63% | 952.6 hPa | 0 mm | - | - | - |
| 1778200535 | 5° C | 62% | 953 hPa | 0 mm | - | - | - |
| 1778197215 | 5° C | 62% | 953.3 hPa | 6.1 mm | - | - | - |
| 1778196315 | 5° C | 61% | 953.5 hPa | 61.47 mm | - | - | - |
* Rain latest hour (hover to see other rain measurements)
** Current wind speed in m/s (hover to see current wind gust speed)